[[{"header":{"parameterUnit":"m.s-1","parameterCategory":2,"la1":30.2992,"la2":30.254,"lo1":-89.0895,"lo2":-89.0443,"dy":0.0025,"dx":0.0025,"nx":19,"ny":19,"refTime":"2026-04-20T09:00:00:Z","depth":"0","parameterNumber":2,"parameterNumberName":"U-component_of_CURRENTS"},"data":[0,0,0,-0.1224,-0.1225,-0.125,-0.125,-0.1269,-0.1269,0,0,0,0,0,0,0,0,0,0,0,-0.1209,-0.1209,-0.1224,-0.1225,-0.125,-0.125,-0.1269,-0.1269,0,0,0,0,0,0,0,0,0,0,0,-0.1209,-0.1209,-0.1209,-0.1225,-0.125,-0.125,-0.1269,-0.1252,0,0,0,0,0,0,0,0,0,0,-0.1229,-0.1214,-0.1209,-0.1209,-0.1225,-0.125,-0.125,-0.1251,-0.1253,-0.1256,0,-0.1259,0,-0.127,-0.1271,-0.1271,0,0,0,-0.122,-0.1212,-0.1226,-0.1209,-0.1225,-0.125,-0.1237,-0.1252,-0.1255,-0.1258,-0.126,-0.1261,-0.127,-0.1271,-0.1271,-0.1329,-0.133,0,0,-0.1218,-0.1207,-0.1225,-0.1227,-0.1231,-0.1236,-0.1238,-0.1254,-0.1251,-0.126,-0.1262,-0.1271,-0.1271,-0.1271,-0.1329,-0.133,0,0,0,-0.1218,-0.1206,-0.1219,-0.1226,-0.1235,-0.1237,-0.1239,-0.125,-0.1257,-0.1262,-0.1271,-0.1271,-0.1272,-0.1328,-0.1329,-0.1343,0,0,0,-0.1217,-0.1206,-0.1219,-0.1211,-0.1234,-0.1244,-0.1235,-0.1255,-0.1258,-0.1271,-0.1271,-0.1272,-0.1328,-0.1329,-0.1342,-0.1348,0,0,0,-0.1208,-0.1205,-0.121,-0.1211,-0.1225,-0.1244,-0.1251,-0.1256,-0.1264,-0.1271,-0.1272,-0.1328,-0.1329,-0.134,-0.1346,-0.1359,0,0,0,-0.1194,-0.12,-0.1209,-0.1222,-0.1225,-0.126,-0.1251,-0.1269,-0.1277,-0.1271,-0.1328,-0.1329,-0.134,-0.1345,-0.1358,-0.1303,-0.1304,0,0,-0.1196,-0.12,-0.121,-0.1219,-0.1251,-0.1256,-0.1294,-0.1297,-0.1297,-0.132,-0.1321,-0.1342,-0.1346,-0.1359,-0.1368,-0.1367,0,0,0,-0.1207,-0.1211,-0.1223,-0.1243,-0.1271,-0.1302,-0.1313,-0.1324,-0.1345,-0.1308,-0.1361,-0.1364,-0.1371,-0.1336,-0.1336,-0.1338,-0.1334,-0.1334,-0.1334,-0.1184,-0.121,-0.123,-0.1266,-0.1293,-0.1335,-0.136,-0.1381,-0.1372,-0.1391,-0.1389,-0.1428,-0.1392,-0.1391,-0.1396,-0.1405,-0.1405,-0.1405,-0.1405,-0.1183,-0.119,-0.1235,-0.126,-0.1308,-0.1341,-0.1404,-0.1411,-0.1445,-0.1431,-0.1437,-0.137,-0.1391,-0.1396,-0.1407,-0.1406,-0.1406,-0.1406,-0.1406,-0.1156,-0.1163,-0.1187,-0.1232,-0.1282,-0.1339,-0.1386,-0.143,-0.1454,-0.1469,-0.1422,-0.1421,-0.1412,-0.1465,-0.1465,-0.1465,-0.1466,-0.1466,-0.1466,-0.1107,-0.1137,-0.1147,-0.1203,-0.1227,-0.1283,-0.1372,-0.1404,-0.1433,-0.1439,-0.1438,-0.1429,-0.1446,-0.1428,-0.1467,-0.1467,-0.1467,-0.1467,-0.1467,-0.1054,-0.1072,-0.1085,-0.1104,-0.1165,-0.1187,-0.129,-0.1346,-0.1392,-0.1393,-0.1407,-0.1423,-0.1412,-0.1411,-0.1393,-0.1421,-0.1421,-0.1421,-0.1421,-0.1005,-0.1021,-0.1017,-0.1034,-0.1072,-0.1136,-0.1152,-0.1232,-0.1321,-0.1343,-0.1393,-0.1367,-0.1368,-0.1354,-0.1355,-0.1335,-0.1348,-0.1348,-0.1348,-0.096,-0.0973,-0.0945,-0.0977,-0.1019,-0.1058,-0.1056,-0.1154,-0.1286,-0.1348,-0.1413,-0.1416,-0.1382,-0.1384,-0.1363,-0.1364,-0.1333,0,0]},{"header":{"parameterUnit":"m.s-1","parameterCategory":2,"la1":30.2992,"la2":30.254,"lo1":-89.0895,"lo2":-89.0443,"dy":0.0025,"dx":0.0025,"nx":19,"ny":19,"refTime":"2026-04-20T09:00:00:Z","depth":"0","parameterNumber":3,"parameterNumberName":"V-component_of_CURRENTS"},"data":[0,0,0,-0.0288,-0.0286,-0.0219,-0.0218,-0.0141,-0.0141,0,0,0,0,0,0,0,0,0,0,0,-0.0312,-0.0312,-0.0288,-0.0286,-0.0219,-0.0218,-0.0142,-0.0141,0,0,0,0,0,0,0,0,0,0,0,-0.0312,-0.0312,-0.0312,-0.0286,-0.0219,-0.0218,-0.0142,-0.0188,0,0,0,0,0,0,0,0,0,0,-0.0252,-0.0279,-0.0312,-0.0312,-0.0286,-0.0219,-0.0218,-0.019,-0.0185,-0.0178,0,-0.0174,0,-0.0159,-0.0137,-0.0137,0,0,0,-0.0277,-0.0284,-0.0264,-0.0312,-0.0285,-0.0219,-0.0246,-0.0187,-0.0182,-0.0172,-0.0173,-0.017,-0.0158,-0.0137,-0.0136,-0.0114,-0.0114,0,0,-0.028,-0.0298,-0.0268,-0.0261,-0.0276,-0.0249,-0.0244,-0.0184,-0.0183,-0.0172,-0.0168,-0.0157,-0.0136,-0.0136,-0.0114,-0.0114,0,0,0,-0.0298,-0.0301,-0.0283,-0.0264,-0.0253,-0.0247,-0.0242,-0.0185,-0.0179,-0.0167,-0.0156,-0.0136,-0.0135,-0.0113,-0.0114,-0.0171,0,0,0,-0.0299,-0.0312,-0.0285,-0.0294,-0.0255,-0.0218,-0.0245,-0.0183,-0.0175,-0.0156,-0.0136,-0.0134,-0.0113,-0.0114,-0.0169,-0.0203,0,0,0,-0.0314,-0.0313,-0.0308,-0.0296,-0.027,-0.0218,-0.0208,-0.0181,-0.0169,-0.0137,-0.0134,-0.0113,-0.0113,-0.0167,-0.02,-0.0212,0,0,0,-0.0331,-0.0335,-0.0308,-0.0311,-0.0271,-0.0248,-0.0208,-0.0184,-0.016,-0.0135,-0.0113,-0.0114,-0.0167,-0.0197,-0.021,-0.0204,-0.0213,0,0,-0.0348,-0.0338,-0.034,-0.0315,-0.0313,-0.0257,-0.0252,-0.0203,-0.0165,-0.0132,-0.0131,-0.017,-0.0199,-0.0211,-0.0232,-0.024,0,0,0,-0.0353,-0.0358,-0.0351,-0.0344,-0.0315,-0.0297,-0.0243,-0.022,-0.0187,-0.0154,-0.0163,-0.018,-0.0186,-0.0178,-0.0184,-0.0074,-0.0116,-0.0116,-0.0116,-0.0398,-0.0385,-0.0398,-0.0381,-0.0367,-0.0322,-0.0306,-0.0265,-0.0219,-0.0216,-0.0222,-0.0266,-0.0258,-0.0263,-0.0149,-0.0211,-0.0211,-0.0212,-0.0212,-0.0439,-0.0451,-0.0441,-0.0448,-0.0426,-0.0415,-0.0367,-0.0335,-0.0308,-0.0269,-0.0271,-0.0233,-0.0273,-0.0149,-0.0215,-0.0215,-0.0214,-0.0214,-0.0214,-0.0473,-0.0479,-0.0482,-0.0501,-0.0508,-0.0474,-0.0484,-0.043,-0.0369,-0.0372,-0.0334,-0.0333,-0.0227,-0.0362,-0.0363,-0.0363,-0.0363,-0.0363,-0.0363,-0.0506,-0.0511,-0.0544,-0.0558,-0.0576,-0.0584,-0.0547,-0.0526,-0.0458,-0.0401,-0.04,-0.0227,-0.0311,-0.0309,-0.0367,-0.0366,-0.0366,-0.0365,-0.0365,-0.0545,-0.0549,-0.0603,-0.063,-0.0675,-0.0708,-0.0664,-0.06,-0.0553,-0.0517,-0.0287,-0.0404,-0.0383,-0.0376,-0.0375,-0.0446,-0.0446,-0.0446,-0.0446,-0.0574,-0.058,-0.0659,-0.0717,-0.0767,-0.0769,-0.0772,-0.0666,-0.0439,-0.0308,-0.0258,-0.0207,-0.0208,-0.0172,-0.017,-0.0162,-0.0179,-0.0178,-0.0177,-0.0604,-0.0629,-0.0692,-0.0748,-0.081,-0.0832,-0.0831,-0.0699,-0.0341,-0.0154,-0.0106,-0.0118,-0.0028,-0.0039,0.0031,0.0024,0.0042,0,0]}],[{"header":{"parameterUnit":"m.s-1","parameterCategory":2,"la1":30.2992,"la2":30.254,"lo1":-89.0895,"lo2":-89.0443,"dy":0.0025,"dx":0.0025,"nx":19,"ny":19,"refTime":"2026-04-20T09:00:00:Z","depth":"2","parameterNumber":2,"parameterNumberName":"U-component_of_CURRENTS"},"data":[0,0,0,-0.1152,-0.1153,-0.1178,-0.1178,-0.1198,-0.1198,0,0,0,0,0,0,0,0,0,0,0,-0.1137,-0.1138,-0.1152,-0.1153,-0.1178,-0.1178,-0.1198,-0.1198,0,0,0,0,0,0,0,0,0,0,0,-0.1137,-0.1137,-0.1138,-0.1153,-0.1178,-0.1178,-0.1198,-0.1181,0,0,0,0,0,0,0,0,0,0,-0.1157,-0.1143,-0.1137,-0.1138,-0.1153,-0.1178,-0.1178,-0.118,-0.1182,-0.1184,0,-0.1188,0,-0.1198,-0.1199,-0.12,0,0,0,-0.1148,-0.1141,-0.1154,-0.1138,-0.1153,-0.1178,-0.1165,-0.1181,-0.1183,-0.1186,-0.1188,-0.1189,-0.1198,-0.12,-0.12,-0.1255,-0.1256,0,0,-0.1147,-0.1136,-0.1153,-0.1156,-0.116,-0.1165,-0.1166,-0.1182,-0.118,-0.1188,-0.119,-0.1199,-0.12,-0.12,-0.1255,-0.1255,0,0,0,-0.1146,-0.1135,-0.1148,-0.1155,-0.1163,-0.1166,-0.1167,-0.1179,-0.1185,-0.119,-0.1199,-0.12,-0.12,-0.1254,-0.1255,-0.1271,0,0,0,-0.1145,-0.1135,-0.1147,-0.114,-0.1163,-0.1173,-0.1164,-0.1184,-0.1187,-0.1199,-0.12,-0.12,-0.1254,-0.1255,-0.127,-0.1277,0,0,0,-0.1136,-0.1134,-0.1138,-0.114,-0.1155,-0.1173,-0.1179,-0.1185,-0.1192,-0.12,-0.12,-0.1254,-0.1255,-0.1268,-0.1275,-0.1288,0,0,0,-0.1123,-0.1129,-0.1138,-0.115,-0.1154,-0.1187,-0.1179,-0.1198,-0.1206,-0.12,-0.1254,-0.1255,-0.1268,-0.1273,-0.1287,-0.1224,-0.1225,0,0,-0.1125,-0.1129,-0.1138,-0.1147,-0.1178,-0.1183,-0.1221,-0.1224,-0.1224,-0.1246,-0.1247,-0.127,-0.1274,-0.1288,-0.1286,-0.1285,0,0,0,-0.1136,-0.114,-0.1151,-0.117,-0.1197,-0.1228,-0.1239,-0.1251,-0.1272,-0.1235,-0.1288,-0.129,-0.1298,-0.1258,-0.1258,-0.126,-0.126,-0.126,-0.126,-0.1114,-0.1139,-0.1158,-0.1192,-0.1218,-0.126,-0.1285,-0.1306,-0.1298,-0.1316,-0.1316,-0.1355,-0.1314,-0.1313,-0.1331,-0.1331,-0.1331,-0.1331,-0.1331,-0.1113,-0.112,-0.1162,-0.1187,-0.1233,-0.1267,-0.1328,-0.1336,-0.1371,-0.1358,-0.1364,-0.1293,-0.1313,-0.1333,-0.1332,-0.1332,-0.1332,-0.1332,-0.1332,-0.1087,-0.1094,-0.1118,-0.1161,-0.1211,-0.1267,-0.1314,-0.1358,-0.1382,-0.1398,-0.1346,-0.1345,-0.1354,-0.1395,-0.1395,-0.1395,-0.1395,-0.1396,-0.1396,-0.1041,-0.107,-0.1079,-0.1135,-0.1159,-0.1214,-0.1303,-0.1334,-0.1361,-0.1364,-0.1363,-0.1377,-0.1375,-0.1358,-0.1397,-0.1397,-0.1397,-0.1397,-0.1396,-0.0989,-0.1007,-0.102,-0.104,-0.11,-0.1121,-0.1223,-0.1275,-0.132,-0.1319,-0.1345,-0.1345,-0.1333,-0.1332,-0.1315,-0.1341,-0.1341,-0.1341,-0.1341,-0.0942,-0.0957,-0.0955,-0.0972,-0.1011,-0.1071,-0.1075,-0.1121,-0.1199,-0.1203,-0.1209,-0.1172,-0.1177,-0.1154,-0.1158,-0.1136,-0.1115,-0.1115,-0.1114,-0.0898,-0.0911,-0.0886,-0.0917,-0.0958,-0.0993,-0.0965,-0.0957,-0.1011,-0.1105,-0.1162,-0.1327,-0.1287,-0.129,-0.1266,-0.1267,-0.1237,0,0]},{"header":{"parameterUnit":"m.s-1","parameterCategory":2,"la1":30.2992,"la2":30.254,"lo1":-89.0895,"lo2":-89.0443,"dy":0.0025,"dx":0.0025,"nx":19,"ny":19,"refTime":"2026-04-20T09:00:00:Z","depth":"2","parameterNumber":3,"parameterNumberName":"V-component_of_CURRENTS"},"data":[0,0,0,-0.0177,-0.0176,-0.0114,-0.0114,-0.0039,-0.0038,0,0,0,0,0,0,0,0,0,0,0,-0.02,-0.02,-0.0177,-0.0176,-0.0114,-0.0114,-0.0039,-0.0038,0,0,0,0,0,0,0,0,0,0,0,-0.02,-0.02,-0.02,-0.0176,-0.0114,-0.0113,-0.0039,-0.0082,0,0,0,0,0,0,0,0,0,0,-0.0141,-0.0168,-0.02,-0.02,-0.0175,-0.0114,-0.0113,-0.0084,-0.008,-0.0072,0,-0.0069,0,-0.0056,-0.0034,-0.0034,0,0,0,-0.0166,-0.0172,-0.0154,-0.02,-0.0175,-0.0114,-0.0139,-0.0082,-0.0076,-0.0066,-0.0068,-0.0065,-0.0054,-0.0034,-0.0034,-0.0008,-0.0008,0,0,-0.0169,-0.0187,-0.0158,-0.0151,-0.0168,-0.0141,-0.0137,-0.0078,-0.0078,-0.0067,-0.0063,-0.0053,-0.0034,-0.0033,-0.0008,-0.0008,0,0,0,-0.0186,-0.019,-0.0173,-0.0154,-0.0145,-0.014,-0.0135,-0.008,-0.0074,-0.0062,-0.0052,-0.0033,-0.0033,-0.0008,-0.0008,-0.0065,0,0,0,-0.0187,-0.02,-0.0174,-0.0184,-0.0146,-0.0112,-0.0139,-0.0078,-0.0071,-0.0053,-0.0033,-0.0032,-0.0008,-0.0008,-0.0063,-0.0096,0,0,0,-0.0201,-0.0201,-0.0197,-0.0185,-0.0162,-0.0113,-0.0103,-0.0076,-0.0066,-0.0034,-0.0032,-0.0008,-0.0008,-0.0061,-0.0092,-0.0101,0,0,0,-0.0217,-0.0223,-0.0197,-0.0201,-0.0163,-0.0141,-0.0103,-0.008,-0.0058,-0.0033,-0.0008,-0.0008,-0.0061,-0.009,-0.0099,-0.0092,-0.01,0,0,-0.0235,-0.0226,-0.0228,-0.0204,-0.0202,-0.0148,-0.0143,-0.0097,-0.006,-0.0025,-0.0024,-0.0064,-0.0092,-0.0101,-0.0115,-0.0122,0,0,0,-0.0241,-0.0246,-0.024,-0.0233,-0.0204,-0.0187,-0.0135,-0.0112,-0.0079,-0.0049,-0.0056,-0.0072,-0.0075,-0.0067,-0.0073,-0.001,-0.001,-0.001,-0.001,-0.0288,-0.0274,-0.0287,-0.0269,-0.0255,-0.021,-0.0193,-0.0151,-0.0109,-0.0105,-0.0112,-0.015,-0.0142,-0.0147,-0.01,-0.01,-0.01,-0.01,-0.01,-0.033,-0.0341,-0.0329,-0.0337,-0.0313,-0.0302,-0.0251,-0.0219,-0.019,-0.0154,-0.0154,-0.012,-0.0156,-0.0105,-0.0104,-0.0103,-0.0103,-0.0103,-0.0102,-0.0365,-0.0371,-0.0374,-0.0392,-0.0397,-0.0362,-0.0366,-0.0312,-0.025,-0.0251,-0.0213,-0.0212,-0.0185,-0.0242,-0.0242,-0.0243,-0.0243,-0.0243,-0.0243,-0.04,-0.0405,-0.0438,-0.045,-0.0467,-0.0473,-0.0431,-0.0405,-0.0334,-0.0278,-0.0277,-0.0198,-0.0193,-0.0192,-0.0246,-0.0246,-0.0245,-0.0245,-0.0245,-0.0442,-0.0447,-0.05,-0.0526,-0.0566,-0.0591,-0.0545,-0.0472,-0.0423,-0.0384,-0.028,-0.0278,-0.0256,-0.025,-0.025,-0.0315,-0.0315,-0.0315,-0.0315,-0.0473,-0.0479,-0.0557,-0.0612,-0.0656,-0.0649,-0.063,-0.05,-0.0369,-0.0284,-0.0285,-0.0252,-0.025,-0.0225,-0.0219,-0.0217,-0.0274,-0.0274,-0.0274,-0.0505,-0.0529,-0.0591,-0.0644,-0.0698,-0.0706,-0.0669,-0.0486,-0.0282,-0.0271,-0.0261,-0.0316,-0.0269,-0.0265,-0.0225,-0.0217,-0.0212,0,0]}],[{"header":{"parameterUnit":"m.s-1","parameterCategory":2,"la1":30.2992,"la2":30.254,"lo1":-89.0895,"lo2":-89.0443,"dy":0.0025,"dx":0.0025,"nx":19,"ny":19,"refTime":"2026-04-20T09:00:00:Z","depth":"4","parameterNumber":2,"parameterNumberName":"U-component_of_CURRENTS"},"data":[0,0,0,-0.0916,-0.0918,-0.0984,-0.0984,-0.1033,-0.1034,0,0,0,0,0,0,0,0,0,0,0,-0.0894,-0.0894,-0.0916,-0.0918,-0.0983,-0.0984,-0.1033,-0.1034,0,0,0,0,0,0,0,0,0,0,0,-0.0893,-0.0894,-0.0895,-0.0918,-0.0983,-0.0984,-0.1033,-0.0992,0,0,0,0,0,0,0,0,0,0,-0.0932,-0.0916,-0.0894,-0.0895,-0.0918,-0.0983,-0.0984,-0.099,-0.0995,-0.0994,0,-0.1008,0,-0.1022,-0.1036,-0.1036,0,0,0,-0.0917,-0.0913,-0.0931,-0.0895,-0.0919,-0.0983,-0.0954,-0.0993,-0.0998,-0.0999,-0.1009,-0.1011,-0.1023,-0.1037,-0.1037,-0.1101,-0.1101,0,0,-0.0913,-0.0904,-0.0928,-0.0935,-0.0941,-0.0952,-0.0956,-0.0996,-0.1001,-0.1009,-0.1012,-0.1024,-0.1037,-0.1037,-0.11,-0.1101,0,0,0,-0.0903,-0.0901,-0.092,-0.0932,-0.0947,-0.0953,-0.0958,-0.1,-0.1006,-0.1013,-0.1024,-0.1037,-0.1038,-0.11,-0.11,-0.1119,0,0,0,-0.0901,-0.0896,-0.0918,-0.0913,-0.0947,-0.0979,-0.0961,-0.1004,-0.1009,-0.1024,-0.1037,-0.1038,-0.1099,-0.11,-0.1117,-0.1124,0,0,0,-0.089,-0.0894,-0.0904,-0.0912,-0.0941,-0.0979,-0.0988,-0.1005,-0.1015,-0.1037,-0.1038,-0.1099,-0.11,-0.1116,-0.1122,-0.1136,0,0,0,-0.0875,-0.0888,-0.0904,-0.0924,-0.0941,-0.0986,-0.0988,-0.1023,-0.1043,-0.1037,-0.1099,-0.11,-0.1116,-0.1121,-0.1135,-0.0994,0,0,0,-0.088,-0.0888,-0.09,-0.0916,-0.0954,-0.0976,-0.1024,-0.105,-0.1057,-0.1082,-0.1084,-0.1118,-0.1122,-0.1135,-0.1053,0,0,0,0,-0.0895,-0.0904,-0.0918,-0.0947,-0.0982,-0.1025,-0.1056,-0.1074,-0.111,-0.1074,-0.1132,-0.1135,-0.1142,-0.1058,-0.1105,-0.1105,-0.1105,-0.1105,-0.1105,-0.0878,-0.0904,-0.093,-0.097,-0.1005,-0.1063,-0.1098,-0.1131,-0.1132,-0.1156,-0.1161,-0.1199,-0.1111,-0.1174,-0.1174,-0.1174,-0.1174,-0.1174,-0.1174,-0.0877,-0.0886,-0.0938,-0.0972,-0.1028,-0.1074,-0.1144,-0.1162,-0.1207,-0.1199,-0.1205,-0.1097,-0.1176,-0.1176,-0.1176,-0.1175,-0.1175,-0.1175,-0.1175,-0.0849,-0.0857,-0.0894,-0.0951,-0.1016,-0.1084,-0.1135,-0.1189,-0.1221,-0.1238,-0.1144,-0.1214,-0.1199,-0.124,-0.124,-0.124,-0.124,-0.124,-0.124,-0.0795,-0.0834,-0.0859,-0.093,-0.0968,-0.1033,-0.1132,-0.1159,-0.1209,-0.1153,-0.1243,-0.1221,-0.1219,-0.1204,-0.1242,-0.1242,-0.1242,-0.1241,-0.1241,-0.074,-0.0768,-0.0796,-0.0832,-0.0914,-0.0956,-0.1065,-0.1089,-0.1108,-0.1087,-0.1106,-0.1112,-0.1091,-0.1093,-0.1072,-0.1073,-0.1071,-0.107,0,-0.0692,-0.0711,-0.0736,-0.0771,-0.0812,-0.0903,-0.09,-0.0953,-0.0999,-0.0964,-0.1108,-0.113,-0.1133,-0.1109,-0.1108,-0.1083,0,0,0,-0.0652,-0.0669,-0.0663,-0.0713,-0.0756,-0.081,-0.0894,-0.0878,-0.0991,-0.097,-0.1028,-0.1039,-0.1166,-0.1247,-0.123,-0.1227,-0.1202,0,0]},{"header":{"parameterUnit":"m.s-1","parameterCategory":2,"la1":30.2992,"la2":30.254,"lo1":-89.0895,"lo2":-89.0443,"dy":0.0025,"dx":0.0025,"nx":19,"ny":19,"refTime":"2026-04-20T09:00:00:Z","depth":"4","parameterNumber":3,"parameterNumberName":"V-component_of_CURRENTS"},"data":[0,0,0,-0.0034,-0.0033,0.0006,0.0006,0.0062,0.0062,0,0,0,0,0,0,0,0,0,0,0,-0.0048,-0.0048,-0.0034,-0.0033,0.0006,0.0007,0.0062,0.0062,0,0,0,0,0,0,0,0,0,0,0,-0.0048,-0.0048,-0.0048,-0.0033,0.0006,0.0007,0.0062,0.0033,0,0,0,0,0,0,0,0,0,0,-0.0005,-0.0025,-0.0048,-0.0048,-0.0033,0.0006,0.0007,0.0032,0.0035,0.0043,0,0.0043,0,0.0051,0.0065,0.0066,0,0,0,-0.0025,-0.0028,-0.0016,-0.0048,-0.0033,0.0006,-0.0009,0.0033,0.0037,0.0047,0.0043,0.0046,0.0052,0.0066,0.0066,0.009,0.0089,0,0,-0.0027,-0.004,-0.0019,-0.0014,-0.0031,-0.001,-0.0008,0.0036,0.0035,0.0044,0.0047,0.0052,0.0066,0.0066,0.009,0.009,0,0,0,-0.0039,-0.0042,-0.0031,-0.0017,-0.0012,-0.001,-0.0007,0.0033,0.0037,0.0048,0.0053,0.0066,0.0067,0.009,0.009,0.0043,0,0,0,-0.004,-0.0049,-0.0032,-0.0039,-0.0013,0.001,-0.001,0.0034,0.0039,0.0053,0.0066,0.0067,0.009,0.009,0.0044,0.0016,0,0,0,-0.0049,-0.005,-0.0048,-0.004,-0.0026,0.0009,0.0016,0.0035,0.0042,0.0066,0.0067,0.009,0.009,0.0045,0.0019,0.0019,0,0,0,-0.006,-0.0067,-0.0048,-0.0055,-0.0027,-0.0014,0.0016,0.0029,0.0045,0.0067,0.009,0.009,0.0046,0.0021,0.0021,0.0022,0,0,0,-0.0075,-0.0069,-0.0073,-0.0055,-0.006,-0.0018,-0.0017,0.0017,0.0047,0.0078,0.0078,0.0044,0.0019,0.002,0.0011,0,0,0,0,-0.0082,-0.0088,-0.0085,-0.0083,-0.0064,-0.0053,-0.0014,0.0006,0.0034,0.0055,0.0053,0.0039,0.0041,0.0046,0.0089,0.0089,0.0089,0.0089,0.0089,-0.0119,-0.0111,-0.0126,-0.0116,-0.0107,-0.0074,-0.0058,-0.0022,0.001,0.0016,0.0008,-0.0016,-0.0012,0.0021,0.0021,0.002,0.002,0.002,0.002,-0.0154,-0.0165,-0.0162,-0.0173,-0.0158,-0.0152,-0.0105,-0.0079,-0.0048,-0.0021,-0.0017,0.0004,0.0016,0.0016,0.0017,0.0018,0.0018,0.0018,0.0018,-0.0179,-0.0185,-0.0195,-0.0219,-0.023,-0.0206,-0.0202,-0.0156,-0.0098,-0.0096,-0.0066,-0.0041,-0.0044,-0.0086,-0.0086,-0.0086,-0.0086,-0.0087,-0.0087,-0.02,-0.0211,-0.0246,-0.0268,-0.029,-0.0298,-0.0258,-0.0224,-0.0162,-0.0121,-0.0107,-0.0051,-0.0048,-0.0049,-0.0089,-0.0088,-0.0088,-0.0088,-0.0088,-0.0227,-0.0237,-0.029,-0.0321,-0.0367,-0.0367,-0.0336,-0.0249,-0.0213,-0.0162,-0.012,-0.0118,-0.0097,-0.0093,-0.0094,-0.0149,-0.0149,-0.0149,0,-0.0246,-0.0255,-0.0331,-0.0385,-0.0419,-0.0406,-0.0357,-0.0301,-0.0213,-0.0215,-0.0214,-0.0172,-0.0168,-0.0149,-0.0145,-0.015,0,0,0,-0.0269,-0.0292,-0.0348,-0.0402,-0.0441,-0.0381,-0.0342,-0.0307,-0.0234,-0.0176,-0.0153,-0.0152,-0.0126,-0.0095,-0.0057,-0.0053,-0.0052,0,0]}]]